Regional Weather Roundup
Issued by NWS

Home | Current Version | Previous Version | Text Only | Print | Product List | Glossary On
Versions: 1 2 3 4 5 6 7 8 9 10 11 12 13 14 15 16 17 18 19 20 21 22 23 24 25 26 27 28 29 30 31 32 33 34 35 36 37 38 39 40 41 42 43 44 45 46 47 48 49 50
000
ASUS43 KMPX 300401
RWRMN
WEATHER ROUNDUP FOR MINNESOTA
NATIONAL WEATHER SERVICE TWIN CITIES/CHANHASSEN MN
1100 PM CDT WED OCT 29 2014


NOTE: "FAIR" INDICATES FEW OR NO CLOUDS BELOW 12,000 FEET WITH NO
SIGNIFICANT WEATHER AND/OR OBSTRUCTIONS TO VISIBILITY. N/A MEANS
CURRENT SKY AND/OR WEATHER CONDITIONS ARE NOT AVAILABLE.

MNZ060>063-068>070-300500-
   Twin Cities Metro

CITY           SKY/WX    TMP DP  RH WIND       PRES   REMARKS
TWIN CITIES    CLOUDY    38  32  79 SE3       30.09S
ST PAUL        CLOUDY    36  32  85 S3        30.10F
CRYSTAL        CLOUDY    36  32  85 CALM      30.08S
BLAINE         CLOUDY    36  36 100 CALM      30.08S
LAKEVILLE      CLOUDY    32  30  93 CALM      30.08S
EDEN PRAIRIE   CLOUDY    37  32  82 SE3       30.08S
SOUTH ST PAUL  CLOUDY    36  32  85 CALM      30.09S
LAKE ELMO      FAIR      32  32 100 CALM      30.10S
$$
MNZ001>005-007-008-013>017-022>024-027-028-300500-
   Northwest Minnesota

CITY           SKY/WX    TMP DP  RH WIND       PRES   REMARKS
BEMIDJI        CLOUDY    32  30  92 SE3       30.03F
HALLOCK        CLOUDY    37  32  81 E5        30.01S
ROSEAU         PTCLDY    34  28  80 SE5       30.03F WCI  30
WARROAD        MOCLDY    34  30  86 CALM      30.04F
THIEF RVR FALL CLOUDY    34  30  86 SE8       30.01F WCI  27
CROOKSTON      CLOUDY    37  32  81 SE9       30.01F
FOSSTON        CLOUDY    34  32  93 SE6       30.02F WCI  29
DETROIT LAKES  CLOUDY    37  32  81 SE7       30.03S
MOORHEAD       CLOUDY    39  36  87 S10       30.02S
PARK RAPIDS    CLOUDY    34  30  85 SE5       30.03F WCI  30
MAHNOMEN       CLOUDY    35  31  85 SE6       30.02S WCI  30
$$
MNZ006-009>011-018-025>026-300500-
   North Central Minnesota

CITY           SKY/WX    TMP DP  RH WIND       PRES   REMARKS
BAUDETTE       CLOUDY    35  32  88 SW3       30.04S
FLAG ISLAND    CLOUDY    36  32  87 W6        30.03S
INTL FALLS     CLOUDY    35  33  92 SW5       30.04S WCI  31
WASKISH        CLOUDY    36  32  87 CALM      30.04S
BIG FORK       CLOUDY    36  34  93 CALM      30.05S
LONGVILLE      CLOUDY    34  30  86 CALM      30.04F
GRAND RAPIDS   CLOUDY    36  30  80 SW3       30.05S
CRANE LAKE     CLOUDY    36  34  93 CALM      30.06S
ORR            CLOUDY    34  32  93 CALM      30.02S
COOK           DRIZZLE   34  34 100 SW3       30.05S
WALKER         CLOUDY    34  29  84 CALM      30.04S
$$
MNZ012-019>021-037-300500-
   Northeast Minnesota

CITY           SKY/WX    TMP DP  RH WIND       PRES   REMARKS
DULUTH         CLOUDY    37  31  78 W6        30.05S
ELY            CLOUDY    36  36 100 W3        30.04R FOG
HIBBING        LGT RAIN  35  32  88 SW3       30.05S
EVELETH        LGT RAIN  34  34 100 SW6       30.06S WCI  29
DULUTH HARBOR  CLOUDY    41  36  81 W8        30.09S
TWO HARBORS    CLOUDY    39 N/A N/A W7        30.04F
SILVER BAY     CLOUDY    39  34  81 CALM      30.04S
GRAND MARAIS     N/A     41  36  82 CALM      30.05S
G MARAIS ARPRT CLOUDY    36  30  80 W3        30.03R
$$
MNZ029>031-032-039>041-046>048-054>057-064-300500-
   West Central Minnesota

CITY           SKY/WX    TMP DP  RH WIND       PRES   REMARKS
FERGUS FALLS   RAIN      37  30  75 SE6       30.05R
WHEATON        LGT RAIN  36  32  87 SE8       30.05R
MORRIS         CLOUDY    37  34  87 SE7       30.03R
ALEXANDRIA     CLOUDY    37  31  78 SE6       30.05S
ELBOW LAKE     MOCLDY    38  32  80 SE8       30.03R
WADENA         CLOUDY    34  30  86 CALM      30.04S
GLENWOOD       CLOUDY    36  32  87 E6        30.05S
APPLETON       CLOUDY    41  34  75 SE8       30.02S
BENSON         CLOUDY    37  34  87 SE6       30.04S
ORTONVILLE     DRIZZLE   39  34  81 E3        30.02R
MADISON        CLOUDY    43  37  81 SE6       30.02S
WILLMAR        FAIR      37  34  87 E8        30.06S
$$
MNZ033>034-036-042>043-049>051-058-059-300500-
   Central Minnesota

CITY           SKY/WX    TMP DP  RH WIND       PRES   REMARKS
ST CLOUD       CLOUDY    37  32  82 SE3       30.07S
SAUK CENTRE    CLOUDY    34  32  94 CALM      30.07R
PAYNESVILLE    CLOUDY    35  32  88 E3        30.06S
AITKIN         CLOUDY    39  32  75 CALM      30.05S
PINE RIVER     CLOUDY    34  32  93 CALM      30.09R
BRAINERD       CLOUDY    35  31  85 CALM      30.06S
STAPLES        CLOUDY    34  30  86 CALM      30.05R
LONG PRAIRIE   CLOUDY    34  32  93 S5        30.05F WCI  30
LITTLE FALLS   CLOUDY    34  32  93 CALM      30.06S
LITCHFIELD     CLOUDY    37  36  93 CALM      30.07S
BUFFALO        CLOUDY    34  31  87 CALM      30.09S
MAPLE LAKE     CLOUDY    37  35  91 CALM      30.08S
$$
MNZ037-044-045-052-053-300500-
   East Central Minnesota

CITY           SKY/WX    TMP DP  RH WIND       PRES   REMARKS
PRINCETON      CLOUDY    37  34  87 CALM      30.08S
MORA           CLOUDY    36  32  87 CALM      30.09S
CAMBRIDGE      CLOUDY    39  30  70 CALM      30.06F
RUSH CITY      CLOUDY    37  32  82 CALM      30.08S
MOOSE LAKE     CLOUDY    36  32  87 CALM      30.06S
HINCKLEY       CLOUDY    37  34  87 CALM      30.08S
CLOQUET        CLOUDY    37  30  75 CALM      30.06S
MCGREGOR       CLOUDY    36  34  93 CALM      30.07S
$$
MNZ071>073-080-081-089-090-097-098-300500-
   Southwest Minnesota

CITY           SKY/WX    TMP DP  RH WIND       PRES   REMARKS
MONTEVIDEO     CLOUDY    39  34  81 S6        30.04S
GRANITE FALLS  CLOUDY    40  31  69 E7        30.05F
CANBY          CLOUDY    41  35  79 E3        30.02S
MARSHALL       CLOUDY    43  28  56 SE7       30.01F
REDWOOD FALLS  CLOUDY    40  31  70 SE7       30.04F
OLIVIA         CLOUDY    39  32  75 SE5       30.04F
PIPESTONE      CLOUDY    45  32  61 S8        30.01S
WINDOM           N/A     39  30  70 CALM      30.05S
WORTHINGTON    CLOUDY    43  30  61 S9        30.04S
JACKSON        CLOUDY    41  30  65 S7        30.05F
TRACY          CLOUDY    45  32  61 S5        30.02F
SLAYTON        CLOUDY    40  32  72 CALM      30.03F
$$
MNZ065>067-074>077-082>085-091>093-300500-
   South Central Minnesota

CITY           SKY/WX    TMP DP  RH WIND       PRES   REMARKS
MANKATO        CLOUDY    39  28  65 SE7       30.07S
NEW ULM        CLOUDY    39  32  75 SE3       30.06S
ST JAMES       CLOUDY    39  30  70 S6        30.07S
FAIRMONT       CLOUDY    37  27  65 S6        30.07S
GLENCOE        CLOUDY    37  32  83 E3        30.07S
FARIBAULT      CLOUDY    34  30  86 CALM      30.08F
OWATONNA       CLOUDY    36  30  80 SE6       30.08S
WASECA         CLOUDY    36  30  80 SE6       30.09S
ALBERT LEA     CLOUDY    36  32  87 SE5       30.08F
$$
MNZ078>079-086>088-094>096-300500-
   Southeast Minnesota

CITY           SKY/WX    TMP DP  RH WIND       PRES   REMARKS
ROCHESTER      MOCLDY    32  30  92 S5        30.10F WCI  27
RED WING       MOCLDY    34  30  86 CALM      30.10R
STANTON        CLOUDY    33  30  88 CALM      30.08S
DODGE CENTER   CLOUDY    34  32  93 S5        30.09S WCI  30
WINONA         PTCLDY    36  34  93 CALM      30.12S
AUSTIN         MOCLDY    34  30  86 SE3       30.09S
PRESTON        MOCLDY    34  30  85 CALM      30.10S
$$
ABBREVIATIONS USED IN REMARKS
   TC - TEMPERATURES IN CELSIUS
  WCI - WIND CHILL INDEX
   HX - HEAT INDEX
  VSB - VISIBILITY
$$



USA.gov is the U.S. government's official web portal to all federal, state and local government web resources and services.